VOI190 MMMY-MMMX

Flight info

Callsign VOI190
Flight time N/A
Altitude 35000
Route KERGA1A KERGA UT132 DARAN DARAN3B
Aircraft A320/M-SDE3FGHIRWY/LB1

Departure

Time N/A
Airport Monterrey International Airport (MMMY)

Arrival

Time 2026-05-06 07:55
Airport Mexico City Benito Juárez International Airport (MMMX)
Time Latitude Longitude Altitude Speed Heading
2026-05-06 06:48 23.73577 -99.96345 32352 ft 431 kts 177°
2026-05-06 06:48 23.70578 -99.95906 32725 ft 431 kts 177°
2026-05-06 06:48 23.67588 -99.95472 33093 ft 431 kts 177°
2026-05-06 06:48 23.64616 -99.95042 33451 ft 431 kts 177°
2026-05-06 06:49 23.61646 -99.94611 33799 ft 430 kts 177°
2026-05-06 06:49 23.58712 -99.94186 34099 ft 430 kts 177°
2026-05-06 06:49 23.55748 -99.93756 34397 ft 430 kts 177°
2026-05-06 06:49 23.52787 -99.93326 34674 ft 430 kts 177°
2026-05-06 06:50 23.49782 -99.92887 34895 ft 430 kts 176°
2026-05-06 06:50 23.43876 -99.92029 34951 ft 437 kts 176°
2026-05-06 06:51 23.37730 -99.91415 34949 ft 437 kts 181°
2026-05-06 06:51 23.31662 -99.91158 34955 ft 436 kts 182°
2026-05-06 06:52 23.25587 -99.90928 34954 ft 437 kts 181°
2026-05-06 06:52 23.19509 -99.90608 34951 ft 438 kts 181°
2026-05-06 06:53 23.13430 -99.90249 34945 ft 438 kts 181°
2026-05-06 06:53 23.07351 -99.89905 34936 ft 437 kts 181°
2026-05-06 06:54 23.01263 -99.89567 34921 ft 437 kts 181°
2026-05-06 06:54 22.95182 -99.89229 34925 ft 438 kts 181°
2026-05-06 06:55 22.89097 -99.88887 34925 ft 438 kts 181°
2026-05-06 06:55 22.83009 -99.88549 34927 ft 438 kts 181°
2026-05-06 06:56 22.76921 -99.88219 34909 ft 438 kts 181°
2026-05-06 06:56 22.70838 -99.87884 34915 ft 438 kts 181°
2026-05-06 06:57 22.64754 -99.87544 34916 ft 438 kts 181°
2026-05-06 06:57 22.58664 -99.87205 34919 ft 438 kts 181°
2026-05-06 06:58 22.52579 -99.86873 34917 ft 438 kts 181°
2026-05-06 06:58 22.46493 -99.86541 34910 ft 438 kts 180°
2026-05-06 06:59 22.40401 -99.86200 34910 ft 438 kts 180°
2026-05-06 06:59 22.34309 -99.85864 34911 ft 438 kts 180°
2026-05-06 07:00 22.28214 -99.85530 34909 ft 438 kts 180°
2026-05-06 07:00 22.22126 -99.85194 34911 ft 438 kts 180°
2026-05-06 07:01 22.16029 -99.84863 34909 ft 438 kts 180°
2026-05-06 07:01 22.09933 -99.84526 34892 ft 439 kts 180°
2026-05-06 07:02 22.03819 -99.84194 34889 ft 440 kts 180°
2026-05-06 07:02 21.97711 -99.83858 34892 ft 440 kts 180°
2026-05-06 07:03 21.91597 -99.83520 34894 ft 440 kts 180°
2026-05-06 07:03 21.85470 -99.83183 34890 ft 440 kts 180°
2026-05-06 07:04 21.79347 -99.82845 34873 ft 441 kts 180°
2026-05-06 07:04 21.73222 -99.82515 34872 ft 441 kts 180°
2026-05-06 07:05 21.67073 -99.82185 34875 ft 442 kts 180°
2026-05-06 07:05 21.60920 -99.81843 34882 ft 442 kts 180°
2026-05-06 07:06 21.54768 -99.81506 34886 ft 443 kts 180°
2026-05-06 07:06 21.48617 -99.81175 34885 ft 443 kts 180°
2026-05-06 07:07 21.42454 -99.80847 34881 ft 444 kts 180°
2026-05-06 07:07 21.36281 -99.80516 34882 ft 444 kts 180°
2026-05-06 07:08 21.30103 -99.80179 34880 ft 445 kts 180°
2026-05-06 07:08 21.23920 -99.79837 34889 ft 445 kts 180°
2026-05-06 07:09 21.17742 -99.79501 34886 ft 445 kts 180°
2026-05-06 07:09 21.11555 -99.79170 34897 ft 444 kts 180°
2026-05-06 07:09 21.08504 -99.79003 34885 ft 432 kts 180°
2026-05-06 07:10 21.05545 -99.78837 34883 ft 418 kts 180°
2026-05-06 07:10 21.02689 -99.78753 34881 ft 402 kts 188°
2026-05-06 07:10 21.00013 -99.79328 34885 ft 388 kts 203°
2026-05-06 07:10 20.97638 -99.80627 34898 ft 383 kts 218°
2026-05-06 07:11 20.95692 -99.82547 34895 ft 380 kts 232°
2026-05-06 07:11 20.94306 -99.84938 34902 ft 380 kts 247°
2026-05-06 07:11 20.93561 -99.87645 34901 ft 381 kts 261°
2026-05-06 07:11 20.93511 -99.90481 34901 ft 384 kts 276°
2026-05-06 07:12 20.94177 -99.93265 34895 ft 389 kts 291°
2026-05-06 07:12 20.95543 -99.95772 34896 ft 395 kts 306°
2026-05-06 07:12 20.97541 -99.97818 34895 ft 402 kts 322°
2026-05-06 07:12 21.00033 -99.99202 34890 ft 408 kts 339°
2026-05-06 07:13 21.02829 -99.99833 34883 ft 412 kts 349°
2026-05-06 07:13 21.08575 -100.00320 34875 ft 416 kts 354°
2026-05-06 07:14 21.14367 -100.00501 34857 ft 418 kts 357°
2026-05-06 07:14 21.17265 -100.00103 34855 ft 423 kts 14°
2026-05-06 07:14 21.19959 -99.98841 34854 ft 426 kts 32°
2026-05-06 07:14 21.22212 -99.96786 34844 ft 427 kts 50°
2026-05-06 07:15 21.23788 -99.94107 34839 ft 426 kts 69°
2026-05-06 07:15 21.24541 -99.91052 34827 ft 423 kts 88°
2026-05-06 07:15 21.24416 -99.87935 34835 ft 418 kts 105°
2026-05-06 07:15 21.23460 -99.85028 34841 ft 412 kts 123°
2026-05-06 07:16 21.21780 -99.82563 34856 ft 409 kts 140°
2026-05-06 07:16 21.19547 -99.80731 34854 ft 402 kts 156°
2026-05-06 07:16 21.17827 -99.79923 34854 ft 397 kts 167°
2026-05-06 07:17 21.12449 -99.79040 34849 ft 393 kts 179°
2026-05-06 07:17 21.06951 -99.78778 34857 ft 393 kts 181°
2026-05-06 07:18 21.01518 -99.78920 34849 ft 387 kts 197°
2026-05-06 07:18 20.99036 -99.79933 34846 ft 381 kts 213°
2026-05-06 07:18 20.96952 -99.81648 34854 ft 377 kts 229°
2026-05-06 07:18 20.95440 -99.83918 34858 ft 376 kts 244°
2026-05-06 07:19 20.94615 -99.86560 34848 ft 377 kts 261°
2026-05-06 07:19 20.94559 -99.89361 34844 ft 380 kts 277°
2026-05-06 07:19 20.95287 -99.92089 34839 ft 385 kts 293°
2026-05-06 07:19 20.96764 -99.94504 34837 ft 392 kts 310°
2026-05-06 07:20 20.98890 -99.96358 34823 ft 399 kts 328°
2026-05-06 07:20 21.01455 -99.97430 34820 ft 406 kts 346°
2026-05-06 07:20 21.04267 -99.97837 34823 ft 409 kts 351°
2026-05-06 07:21 21.09982 -99.98209 34829 ft 414 kts 355°
2026-05-06 07:21 21.15757 -99.98155 34808 ft 419 kts 10°
2026-05-06 07:21 21.18504 -99.97084 34809 ft 423 kts 29°
2026-05-06 07:22 21.20803 -99.95126 34806 ft 425 kts 49°
2026-05-06 07:22 21.22383 -99.92468 34804 ft 423 kts 70°
2026-05-06 07:22 21.23045 -99.89377 34831 ft 422 kts 91°
2026-05-06 07:22 21.22726 -99.86272 34836 ft 419 kts 110°
2026-05-06 07:23 21.21504 -99.83474 34832 ft 412 kts 130°
2026-05-06 07:23 21.19553 -99.81282 34826 ft 405 kts 148°
2026-05-06 07:23 21.17108 -99.79879 34827 ft 397 kts 166°
2026-05-06 07:24 21.11711 -99.79012 34830 ft 392 kts 179°
2026-05-06 07:24 21.06258 -99.78755 34833 ft 392 kts 181°
2026-05-06 07:25 21.00865 -99.79113 34829 ft 385 kts 201°
2026-05-06 07:25 20.98468 -99.80317 34837 ft 380 kts 217°
2026-05-06 07:25 20.96508 -99.82192 34832 ft 377 kts 232°
2026-05-06 07:25 20.95168 -99.84575 34832 ft 375 kts 249°
2026-05-06 07:26 20.94543 -99.87278 34822 ft 377 kts 264°
2026-05-06 07:26 20.94680 -99.90084 34816 ft 380 kts 281°
2026-05-06 07:26 20.95597 -99.92744 34812 ft 385 kts 297°
2026-05-06 07:26 20.97249 -99.95027 34808 ft 392 kts 315°
2026-05-06 07:27 20.99505 -99.96690 34795 ft 399 kts 333°
2026-05-06 07:27 21.02180 -99.97547 34797 ft 407 kts 349°
2026-05-06 07:27 21.05014 -99.97894 34829 ft 413 kts 352°
2026-05-06 07:27 21.07922 -99.97800 34824 ft 426 kts
2026-05-06 07:28 21.10750 -99.96742 34823 ft 437 kts 28°
2026-05-06 07:28 21.13199 -99.94760 34813 ft 447 kts 48°
2026-05-06 07:28 21.15584 -99.88711 34815 ft 457 kts 91°
2026-05-06 07:29 21.15155 -99.85315 34810 ft 457 kts 112°
2026-05-06 07:29 21.13679 -99.82319 34805 ft 456 kts 133°
2026-05-06 07:29 21.11346 -99.80071 34813 ft 451 kts 153°
2026-05-06 07:29 21.08466 -99.78841 34813 ft 444 kts 173°
2026-05-06 07:30 21.05412 -99.78657 34813 ft 441 kts 184°
2026-05-06 07:30 21.02332 -99.78725 34809 ft 443 kts 183°
2026-05-06 07:30 20.96156 -99.78614 34518 ft 445 kts 181°
2026-05-06 07:31 20.93066 -99.78472 34289 ft 445 kts 180°
2026-05-06 07:31 20.89956 -99.78317 34062 ft 446 kts 180°
2026-05-06 07:31 20.86853 -99.78173 33837 ft 447 kts 181°
2026-05-06 07:31 20.83744 -99.78046 33574 ft 447 kts 181°
2026-05-06 07:32 20.80633 -99.77936 33314 ft 448 kts 181°
2026-05-06 07:32 20.77517 -99.77836 33053 ft 448 kts 181°
2026-05-06 07:32 20.74392 -99.77736 32355 ft 450 kts 181°
2026-05-06 07:32 20.71319 -99.77635 31865 ft 446 kts 180°
2026-05-06 07:33 20.68225 -99.77532 31295 ft 443 kts 180°
2026-05-06 07:33 20.65155 -99.77430 30734 ft 441 kts 180°
2026-05-06 07:33 20.62093 -99.77328 30165 ft 439 kts 180°
2026-05-06 07:33 20.59046 -99.77225 29583 ft 436 kts 180°
2026-05-06 07:34 20.56025 -99.77119 29006 ft 432 kts 180°
2026-05-06 07:34 20.53034 -99.77014 28451 ft 427 kts 180°
2026-05-06 07:34 20.50075 -99.76911 27909 ft 423 kts 179°
2026-05-06 07:34 20.47147 -99.76813 27373 ft 419 kts 179°
2026-05-06 07:35 20.44246 -99.76716 26855 ft 415 kts 179°
2026-05-06 07:35 20.41368 -99.76621 26340 ft 411 kts 179°
2026-05-06 07:35 20.38521 -99.76526 25831 ft 408 kts 179°
2026-05-06 07:35 20.35695 -99.76429 25343 ft 404 kts 179°
2026-05-06 07:36 20.32898 -99.76330 24884 ft 401 kts 178°
2026-05-06 07:36 20.30113 -99.76235 24414 ft 398 kts 178°
2026-05-06 07:36 20.27354 -99.76142 23954 ft 395 kts 178°
2026-05-06 07:36 20.24612 -99.76047 23496 ft 393 kts 178°
2026-05-06 07:37 20.21890 -99.75947 22986 ft 390 kts 176°
2026-05-06 07:37 20.19222 -99.75570 22549 ft 386 kts 169°
2026-05-06 07:37 20.16591 -99.75049 22069 ft 383 kts 169°
2026-05-06 07:37 20.13985 -99.74528 21593 ft 380 kts 169°
2026-05-06 07:38 20.11396 -99.74010 21117 ft 377 kts 169°
2026-05-06 07:38 20.08827 -99.73497 20581 ft 375 kts 169°
2026-05-06 07:38 20.06224 -99.72978 19831 ft 383 kts 169°
2026-05-06 07:38 20.03615 -99.72457 19356 ft 380 kts 168°
2026-05-06 07:39 20.01024 -99.71940 18881 ft 377 kts 168°
2026-05-06 07:39 19.98454 -99.71430 18414 ft 375 kts 168°
2026-05-06 07:39 19.95862 -99.70916 17910 ft 372 kts 168°
2026-05-06 07:39 19.93325 -99.70413 17456 ft 369 kts 168°
2026-05-06 07:40 19.90841 -99.69919 16999 ft 365 kts 168°
2026-05-06 07:40 19.88349 -99.69424 16765 ft 355 kts 168°
2026-05-06 07:40 19.86001 -99.68845 16625 ft 342 kts 159°
2026-05-06 07:40 19.83927 -99.67724 16513 ft 328 kts 143°
2026-05-06 07:41 19.82259 -99.66127 16524 ft 323 kts 129°
2026-05-06 07:41 19.80937 -99.64206 16526 ft 322 kts 124°
2026-05-06 07:41 19.79693 -99.62224 16538 ft 320 kts 116°
2026-05-06 07:41 19.79085 -99.60022 16538 ft 306 kts 93°
2026-05-06 07:42 19.79342 -99.57835 16533 ft 298 kts 70°
2026-05-06 07:42 19.80372 -99.55939 16533 ft 299 kts 49°
2026-05-06 07:42 19.81802 -99.54332 16524 ft 300 kts 47°
2026-05-06 07:42 19.83248 -99.52733 16516 ft 300 kts 47°
2026-05-06 07:43 19.84692 -99.51136 16510 ft 300 kts 47°
2026-05-06 07:43 19.86140 -99.49534 16510 ft 300 kts 47°
2026-05-06 07:43 19.87583 -99.47934 16512 ft 300 kts 48°
2026-05-06 07:43 19.88833 -99.46173 16508 ft 299 kts 62°
2026-05-06 07:44 19.89627 -99.44138 16506 ft 299 kts 76°
2026-05-06 07:44 19.90142 -99.41997 16509 ft 300 kts 76°
2026-05-06 07:44 19.90663 -99.39852 16509 ft 300 kts 76°
2026-05-06 07:44 19.91189 -99.37705 16497 ft 300 kts 76°
2026-05-06 07:45 19.91704 -99.35557 16493 ft 300 kts 80°
2026-05-06 07:45 19.91709 -99.33364 16519 ft 298 kts 103°
2026-05-06 07:45 19.90888 -99.31356 16560 ft 299 kts 126°
2026-05-06 07:45 19.89379 -99.29846 16420 ft 299 kts 150°
2026-05-06 07:46 19.87425 -99.29129 16230 ft 299 kts 173°
2026-05-06 07:46 19.85361 -99.29084 16045 ft 300 kts 179°
2026-05-06 07:46 19.83256 -99.29092 15850 ft 300 kts 179°
2026-05-06 07:46 19.81173 -99.29096 15664 ft 299 kts 179°
2026-05-06 07:47 19.79091 -99.29097 15465 ft 298 kts 179°
2026-05-06 07:47 19.77021 -99.29099 15260 ft 298 kts 179°
2026-05-06 07:47 19.74956 -99.29099 15068 ft 297 kts 179°
2026-05-06 07:47 19.72889 -99.29097 14859 ft 296 kts 179°
2026-05-06 07:48 19.71518 -99.29094 14719 ft 296 kts 179°
2026-05-06 07:48 19.69437 -99.29089 14509 ft 295 kts 179°
2026-05-06 07:48 19.67380 -99.29087 14202 ft 294 kts 179°
2026-05-06 07:48 19.65334 -99.29088 14040 ft 294 kts 179°
2026-05-06 07:49 19.63288 -99.29090 13865 ft 293 kts 179°
2026-05-06 07:49 19.61276 -99.29058 13755 ft 285 kts 172°
2026-05-06 07:49 19.59391 -99.28548 13625 ft 277 kts 155°
2026-05-06 07:49 19.57749 -99.27481 13300 ft 277 kts 142°
2026-05-06 07:50 19.56195 -99.26258 13006 ft 278 kts 142°
2026-05-06 07:50 19.54646 -99.25040 12707 ft 278 kts 142°
2026-05-06 07:50 19.53000 -99.23981 12416 ft 278 kts 158°
2026-05-06 07:50 19.51131 -99.23506 12108 ft 277 kts 176°
2026-05-06 07:51 19.49203 -99.23466 11815 ft 277 kts 178°
2026-05-06 07:51 19.47283 -99.23437 11498 ft 276 kts 178°
2026-05-06 07:51 19.45402 -99.23404 11190 ft 267 kts 178°
2026-05-06 07:51 19.43561 -99.23370 10887 ft 259 kts 179°
2026-05-06 07:52 19.41787 -99.23338 10593 ft 251 kts 179°
2026-05-06 07:52 19.40076 -99.23171 10302 ft 243 kts 162°
2026-05-06 07:52 19.38647 -99.22327 10050 ft 230 kts 137°
2026-05-06 07:52 19.37755 -99.20992 9773 ft 219 kts 112°
2026-05-06 07:53 19.37471 -99.19436 9555 ft 215 kts 89°
2026-05-06 07:53 19.37793 -99.17916 9442 ft 211 kts 66°
2026-05-06 07:53 19.38521 -99.16576 9322 ft 201 kts 59°
2026-05-06 07:53 19.39222 -99.15336 9031 ft 194 kts 58°
2026-05-06 07:54 19.39963 -99.14020 8412 ft 178 kts 59°
2026-05-06 07:54 19.40602 -99.12874 8119 ft 168 kts 59°
2026-05-06 07:54 19.41209 -99.11825 7956 ft 165 kts 58°
2026-05-06 07:54 19.41795 -99.10789 7752 ft 163 kts 60°
2026-05-06 07:55 19.42421 -99.09680 7520 ft 161 kts 59°
2026-05-06 07:55 19.42981 -99.08655 7340 ft 160 kts 60°
2026-05-06 07:55 19.43498 -99.07725 7305 ft 130 kts 59°
2026-05-06 07:55 19.43819 -99.07157 7303 ft 46 kts 59°
2026-05-06 07:56 19.43950 -99.06919 7305 ft 27 kts 69°
2026-05-06 07:56 19.43962 -99.06786 7303 ft 28 kts 90°
2026-05-06 07:56 19.43963 -99.06659 7303 ft 0 kts 89°
2026-05-06 07:56 19.43963 -99.06658 7303 ft 1 kts 89°
2026-05-06 07:57 19.43963 -99.06627 7303 ft 6 kts 89°
2026-05-06 07:57 19.43964 -99.06591 7303 ft 1 kts 89°
2026-05-06 07:57 19.43964 -99.06589 7303 ft 1 kts 89°
2026-05-06 07:58 19.43964 -99.06587 7303 ft 0 kts 89°
2026-05-06 07:58 19.43964 -99.06584 7303 ft 2 kts 89°
2026-05-06 07:58 19.43964 -99.06555 7303 ft 5 kts 89°
2026-05-06 07:58 19.43964 -99.06513 7303 ft 7 kts 90°
2026-05-06 07:59 19.43972 -99.06458 7303 ft 8 kts 88°
2026-05-06 07:59 19.43970 -99.06396 7302 ft 9 kts 91°
2026-05-06 07:59 19.43969 -99.06317 7301 ft 12 kts 90°
2026-05-06 07:59 19.43968 -99.06229 7303 ft 12 kts 90°
2026-05-06 08:00 19.43969 -99.06138 7303 ft 13 kts 89°
2026-05-06 08:00 19.43923 -99.06081 7303 ft 12 kts 197°
2026-05-06 08:00 19.43873 -99.06154 7303 ft 13 kts 240°
2026-05-06 08:00 19.43826 -99.06239 7303 ft 13 kts 239°
2026-05-06 08:01 19.43776 -99.06328 7303 ft 15 kts 239°
2026-05-06 08:01 19.43726 -99.06418 7303 ft 14 kts 239°
2026-05-06 08:01 19.43675 -99.06509 7303 ft 15 kts 239°
2026-05-06 08:01 19.43620 -99.06608 7303 ft 16 kts 239°
2026-05-06 08:02 19.43556 -99.06697 7303 ft 15 kts 217°
2026-05-06 08:02 19.43462 -99.06754 7303 ft 16 kts 215°
2026-05-06 08:02 19.43412 -99.06839 7303 ft 14 kts 252°
2026-05-06 08:02 19.43365 -99.06931 7303 ft 15 kts 239°
2026-05-06 08:03 19.43310 -99.07027 7303 ft 16 kts 239°
2026-05-06 08:03 19.43265 -99.07133 7303 ft 17 kts 261°
2026-05-06 08:03 19.43249 -99.07255 7303 ft 15 kts 252°
2026-05-06 08:03 19.43196 -99.07354 7303 ft 16 kts 239°
2026-05-06 08:04 19.43136 -99.07459 7303 ft 17 kts 238°
2026-05-06 08:04 19.43072 -99.07569 7303 ft 18 kts 239°
2026-05-06 08:04 19.43009 -99.07682 7303 ft 16 kts 238°
2026-05-06 08:04 19.42940 -99.07777 7303 ft 16 kts 225°
2026-05-06 08:05 19.42847 -99.07846 7303 ft 17 kts 209°
2026-05-06 08:05 19.42756 -99.07922 7303 ft 17 kts 238°
2026-05-06 08:05 19.42695 -99.08029 7303 ft 14 kts 238°
2026-05-06 08:05 19.42647 -99.08114 7303 ft 12 kts 239°
2026-05-06 08:06 19.42584 -99.08139 7303 ft 11 kts 155°
2026-05-06 08:06 19.42516 -99.08096 7303 ft 12 kts 149°
2026-05-06 08:06 19.42452 -99.08116 7303 ft 9 kts 228°
2026-05-06 08:06 19.42416 -99.08178 7303 ft 10 kts 237°
2026-05-06 08:07 19.42359 -99.08202 7303 ft 10 kts 176°
2026-05-06 08:07 19.42290 -99.08203 7303 ft 10 kts 183°
2026-05-06 08:07 19.42217 -99.08196 7303 ft 11 kts 151°
2026-05-06 08:07 19.42186 -99.08153 7303 ft 7 kts 122°
2026-05-06 08:08 19.42151 -99.08122 7303 ft 6 kts 176°
2026-05-06 08:08 19.42137 -99.08129 7303 ft 1 kts 212°
2026-05-06 08:08 19.42133 -99.08132 7303 ft 0 kts 211°